[keps] orb10140.2l.amsat

Ray Hoad ray.hoad at mypbmail.com
Thu May 20 16:26:12 PDT 2010


SB KEPS @ AMSAT  $ORB10140.N
2Line Orbital Elements 10140.AMSAT

HR AMSAT ORBITAL ELEMENTS FOR AMATEUR SATELLITES IN NASA FORMAT
FROM WA5QGD FORT WORTH,TX May 20, 2010
Send Subscribe/unsubscribe to KEPS at http://www.amsat.org/mailman/listinfo/keps
BID: ORB10140.N

DECODE 2-LINE ELSETS WITH THE FOLLOWING KEY:
1 AAAAAU 00  0  0 BBBBB.BBBBBBBB  .CCCCCCCC  00000-0  00000-0 0  DDDZ
2 AAAAA EEE.EEEE FFF.FFFF GGGGGGG HHH.HHHH III.IIII JJ.JJJJJJJJKKKKKZ
KEY: A-CATALOGNUM B-EPOCHTIME C-DECAY D-ELSETNUM E-INCLINATION F-RAAN
G-ECCENTRICITY H-ARGPERIGEE I-MNANOM J-MNMOTION K-ORBITNUM Z-CHECKSUM

TO ALL RADIO AMATEURS BT

AO-07
1 07530U 74089B   10139.63202253 -.00000027  00000-0  10000-3 0  7802
2 07530 101.4006 156.6057 0011786 331.7236 028.3194 12.53578482624876
FO-29
1 24278U 96046B   10139.92846454  .00000245  00000-0  28556-3 0 03291
2 24278 098.5148 332.9670 0350520 196.9997 161.9159 13.52951588679286
SO-33
1 25509U 98061B   10140.65175148  .00000135  00000-0  16769-4 0  7156
2 25509 031.4325 304.2249 0353292 049.1493 313.9186 14.28305693604113
RS-22
1 27939U 03042A   10140.63753597  .00000082  00000-0  24572-4 0  1974
2 27939 097.8966 007.2879 0014258 142.8113 217.4072 14.63417831354924
VO-52
1 28650U 05017B   10139.90620257 -.00000000  00000-0  64815-5 0 05063
2 28650 097.6943 194.4401 0027341 011.9056 348.2831 14.81744663272502
SO-67
1 35870U 09049F   10140.75365447  .00000423  00000-0  22167-4 0  7441
2 35870 097.3336 190.6112 0002912 163.2687 329.4761 15.20884882 37281
HO-68
1 36122U 09072B   10140.73322578 -.00000045  00000-0  00000 0 0  3224
2 36122 100.4701 201.4381 0007912 040.2591 319.9107 13.16280760 20600
UO-11
1 14781U 84021B   10139.89346533 -.00000242  00000-0 -24972-4 0 02453
2 14781 098.0550 191.5443 0008755 337.4673 022.6129 14.79799956407622
AO-16
1 20439U 90005D   10139.67814419 -.00000007  00000-0  13033-4 0  8986
2 20439 098.3309 098.7106 0009943 249.3266 110.6849 14.31860885 61303
LO-19
1 20442U 90005G   10139.47084216 -.00000041  00000-0  20585-6 0 08106
2 20442 098.2916 104.4299 0011044 244.7802 115.2221 14.32092197061442
AO-27
1 22825U 93061C   10140.64139831  .00000095  00000-0  54070-4 0  5337
2 22825 098.4850 089.3071 0008354 357.3488 002.7646 14.29297761868118
IO-26
1 22826U 93061D   10140.64179393  .00000018  00000-0  23563-4 0  2701
2 22826 098.4784 089.9195 0008791 352.4020 007.7029 14.29553166868227
GO-32
1 25397U 98043D   10139.83814229  .00000037  00000-0  34521-4 0  1891
2 25397 098.3120 148.8498 0001383 038.3484 321.7777 14.23178093616014
NO-44
1 26931U 01043C   10140.42973471 -.00000123  00000-0 -15829-4 0  4624
2 26931 067.0523 275.4883 0005717 260.8128 099.2306 14.29596622450789
SO-50
1 27607U 02058C   10139.39754202 -.00000094  00000-0  66667-5 0 01782
2 27607 064.5587 083.9612 0034518 090.9764 269.5289 14.71538189398147
CO-55
1 27844U 03031E   10139.50171133  .00000058  00000-0  47109-4 0 08501
2 27844 098.7088 148.8874 0008902 255.5480 104.4721 14.20707082357011
CO-57
1 27848U 03031J   10139.52710910  .00000058  00000-0  47426-4 0  7993
2 27848 098.7135 148.0017 0008741 260.1426 099.8759 14.20499719356979
AO-51
1 28375U 04025K   10139.95123937  .00000036  00000-0  23560-4 0 06805
2 28375 098.0619 135.0583 0083187 182.4481 177.6295 14.40684752309448
GENESAT1
1 29655U 06058C   10139.58208417  .00084350  00000-0  29658-3 0 00629
2 29655 040.0169 214.8774 0007096 096.0813 264.0823 15.88045178195435
CP3
1 31129U 07012N   10139.69145111  .00000131  00000-0  41087-4 0 05825
2 31129 097.9405 180.7829 0101076 323.0929 036.3329 14.52254224163726
CO-65
1 32785U 08021C   10140.88127426  .00000401  00000-0  57601-4 0  6850
2 32785 097.8979 206.1829 0015583 018.0034 342.1723 14.81653017111441
KKS-1
1 33493U 09002B   10140.75611959  .00000370  00000-0  54762-4 0  4995
2 33493 098.0831 260.0179 0018960 227.6600 132.3013 14.80983198 71423
SOHLA-1
1 33496U 09002E   10140.44766518  .00000123  00000-0  29054-4 0  1074
2 33496 098.0565 249.8854 0005480 295.3407 064.7233 14.69493595 70802
NOAA-10
1 16969U 86073A   10139.76392665 -.00000102  00000-0 -23765-4 0 00716
2 16969 098.6578 168.9959 0011252 297.2383 062.7658 14.27415746231526
NOAA-11
1 19531U 88089A   10139.74230094 -.00000050  00000-0 -32951-5 0 00831
2 19531 098.7689 229.2494 0010756 227.1052 132.9230 14.14925090117114
NOAA-12
1 21263U 91032A   10139.85642063  .00000022  00000-0  28161-4 0 05708
2 21263 098.7652 153.0190 0011348 248.1888 111.8080 14.25633186988360
MET-3/5
1 21655U 91056A   10139.91982044  .00000051  00000-0  10000-3 0 08170
2 21655 082.5568 328.6098 0014686 062.6828 297.5726 13.17023610901954
MET-2/21
1 22782U 93055A   10139.87236522  .00000033  00000-0  16386-4 0 07815
2 22782 082.5472 274.9023 0023704 120.1895 240.1632 13.83644764844167
OKEAN-4
1 23317U 94066A   10139.70986379  .00000211  00000-0  23022-4 0 02376
2 23317 082.5409 020.4417 0021756 340.6094 019.4307 14.82816567842232
NOAA-14
1 23455U 94089A   10139.83343502 -.00000027  00000-0  93348-5 0 00613
2 23455 098.8783 220.7721 0008972 321.5290 038.5251 14.13785779793491
NOAA-15
1 25338U 98030A   10139.92403770  .00000212  00000-0  10944-3 0 03818
2 25338 098.6179 127.3591 0011115 152.1858 207.9935 14.24827020624726
RESURS
1 25394U 98043A   10139.61357788 -.00000009  00000-0  13711-4 0 05089
2 25394 098.3060 159.2472 0001113 353.0287 007.0874 14.24201031616282
FENGYUN1
1 25730U 99025A   10139.45839912 -.00000340  00000-0 -17322-3 0 00489
2 25730 098.7857 105.1620 0024436 353.2728 006.8114 14.08218334567649
OKEAN-0
1 25860U 99039A   10140.50914710  .00000029  00000-0  11734-4 0  9973
2 25860 097.8304 114.1518 0001362 105.1199 255.0154 14.73639381582825
NOAA-16
1 26536U 00055A   10139.96420622  .00000145  00000-0  10354-3 0 08598
2 26536 099.1704 156.7664 0011325 059.7583 300.4712 14.12558567497841
NOAA-17
1 27453U 02032A   10139.96370709  .00000171  00000-0  92210-4 0 08630
2 27453 098.4325 191.5402 0011131 215.5919 144.4509 14.24159014410682
NOAA-18
1 28654U 05018A   10139.94312368 -.00000174  00000-0 -71608-4 0 03476
2 28654 098.9491 086.2914 0014977 130.1202 230.1270 14.11355367257458
NOAA-19
1 33591U 09005A   10139.92498113 -.00000145  00000-0 -56498-4 0 05440
2 33591 098.7875 082.6489 0014603 013.6771 346.4797 14.11051636065923
HUBBLE
1 20580U 90037B   10140.12080359  .00000344  00000-0  13527-4 0  5672
2 20580 028.4685 063.0764 0003378 257.6508 102.3718 15.00972641900534
ISS
1 25544U 98067A   10140.82248692  .00013793  00000-0  98175-4 0  1895
2 25544 051.6470 010.9984 0009832 338.4835 114.7562 15.74141501659164
CO-58
1 28895U 05043F   10139.88055314  .00000004  00000-0  10262-4 0 05896
2 28895 098.0196 025.2895 0018065 018.7937 341.3956 14.59890288242859
FALCON
1 30776U 07006E   10139.59725111  .00000365  00000-0  29144-4 0 08314
2 30776 035.4336 217.8682 0002060 316.9272 043.1284 15.03655992175753
MAST
1 31126U 07012K   10139.93020155 -.00000142  00000-0 -21294-4 0 08701
2 31126 097.9385 183.3992 0093767 314.6178 044.7332 14.53584800163958
CAPE1
1 31130U 07012P   10140.78133310  .00000184  00000-0  53301-4 0  8909
2 31130 097.9400 181.6694 0101651 320.2128 039.1635 14.52177127163684
COMPASS
1 32787U 08021E   10140.21412370  .00000575  00000-0  79282-4 0  6765
2 32787 097.8966 205.3536 0016203 021.0631 339.1257 14.81866344111359
AAUSAT2
1 32788U 08021F   10140.15235597  .00000631  00000-0  86087-4 0  6699
2 32788 097.8939 205.4127 0016163 022.0108 338.1816 14.82008783111358
DO-64
1 32789U 08021G   10139.69129224  .00000885  00000-0  11764-3 0  6854
2 32789 097.9025 205.4005 0016113 021.8780 338.3139 14.82138432111286
CO-66
1 32791U 08021J   10140.63719988  .00000531  00000-0  74078-4 0  6682
2 32791 097.8958 205.7886 0016723 017.4002 342.7762 14.81654700111379
RS-30
1 32953U 08025A   10140.76291027  .00000010  00000-0  00000 0 0  7108
2 32953 082.5032 046.7314 0018686 158.0551 202.1333 12.43005073 90337
TACSAT-3
1 35001U 09028A   10139.93328315  .00003394  00000-0  83910-4 0 02926
2 35001 040.4574 023.7990 0019953 156.6171 203.5563 15.41572655056274
PHARMSAT
1 35002U 09028B   10140.80348655  .00003309  00000-0  80304-4 0  2755
2 35002 040.4706 016.6726 0023162 166.4579 193.6863 15.42131848 56423
HAWKSAT1
1 35003U 09028C   10139.92535491  .00006505  00000-0  13855-3 0 02941
2 35003 040.4634 017.5484 0021361 174.9099 185.1968 15.44990531056342
CP6
1 35004U 09028D   10139.93677658  .00007831  00000-0  16165-3 0 02912
2 35004 040.4666 016.7526 0020304 177.7418 182.3515 15.45736858056346
AEROCUB3
1 35005U 09028E   10140.78502488  .00024469  00000-0  42699-3 0  3183
2 35005 040.4732 010.3096 0016984 198.0491 161.9725 15.49924867 56494
DRAGNSAT
1 35690U 09038B   10076.22711312  .05715194  12509-4  31481-3 0  3162
2 35690 051.6170 315.4586 0004999 310.9891 057.3269 16.42150010 36561
POLLUX
1 35693U 09038E   10087.99866888  .23496735  12787-4  17715-3 0  3529
2 35693 051.6099 254.5746 0006270 294.4866 097.5899 16.52338462 38395
CASTOR
1 35694U 09038F   10140.85895061  .00070880  13399-4  15397-3 0  3911
2 35694 051.6357 346.0533 0002752 125.5377 234.5892 15.98460136 46686
METEOR-M
1 35865U 09049A   10140.68933360  .00000176  00000-0  10000-3 0  3120
2 35865 098.7593 194.6802 0003407 077.2976 282.8560 14.21830236 34819
RS-38
1 35869U 09049E   10140.66377829  .00000177  00000-0  10000-3 0  3181
2 35869 098.7596 194.6859 0005575 084.4555 275.7243 14.21981806 34818
/EX




More information about the Keps mailing list